Regional Weather Roundup
Issued by NWS

Home | Current Version | Previous Version | Graphics & Text | Print | Product List | Glossary On
Versions: 1 2 3 4 5 6 7 8 9 10 11 12 13 14 15 16 17 18 19 20 21 22 23 24 25 26 27 28 29 30 31 32 33 34 35 36 37 38 39 40 41 42 43 44 45 46 47 48 49 50
000
ASUS43 KDTX 281010
RWRMI
MICHIGAN HOURLY REGIONAL WEATHER ROUNDUP
NATIONAL WEATHER SERVICE DETROIT/PONTIAC MI
500 AM EST FRI NOV 28 2014

NOTE: "FAIR" INDICATES FEW OR NO CLOUDS BELOW 12,000 FEET WITH NO
SIGNIFICANT WEATHER AND/OR OBSTRUCTION TO VISIBILITY.

MIZ047>049-052>055-059>063-066>070-074>076-081>083-281100-
SOUTHEAST LOWER MICHIGAN

CITY           SKY/WX    TMP DP  RH WIND       PRES   REMARKS
ADRIAN         CLEAR     15   8  73 N3        30.35F
ALMA           MOCLDY    17   9  71 W3        30.33S
ANN ARBOR      CLEAR     12   8  84 W3        30.33F
BAD AXE        CLOUDY    19  11  69 NW10      30.30S
DETROIT CITY   CLEAR     20   7  57 W7        30.35R
DETROIT        CLOUDY    20   7  57 NW8       30.36R
FLINT          CLEAR     17  10  74 W5        30.33S
GROSSE ILE     CLOUDY    21  10  63 NW8       30.34R
HILLSDALE      CLOUDY    17  14  88 CALM      30.31S
HOWELL         CLEAR     15   8  73 CALM      30.31F

CITY           SKY/WX    TMP DP  RH WIND       PRES   REMARKS
JACKSON          N/A     12   7  80 CALM      30.32F
LAMBERTVILLE   CLEAR     19  10  68 W5        30.36S
LANSING        CLEAR     17   9  70 CALM      30.33F
LAPEER         NOT AVBL
MASON            N/A     17  11  75 CALM      30.32F
MONROE         CLEAR     16   9  73 CALM      30.34S
MT. CLEMENS    CLEAR     18   9  68 W7        30.32R
PONTIAC        CLEAR     15   6  67 NW6       30.30F
PORT HOPE        N/A     20   8  60 W8        30.28R
PORT HURON     CLOUDY    19   9  63 W7        30.32R
TRI CITIES     CLEAR     18  11  74 W6        30.34S
YPSILANTI      PTCLDY    21   8  57 NW7       30.35S
$$
MIZ043>046-050>051-056>058-064>065-071>073-077>080-281100-
SOUTHWEST LOWER MICHIGAN

CITY           SKY/WX    TMP DP  RH WIND       PRES   REMARKS
BATTLE CREEK   CLOUDY    21  11  65 S5        30.33S
BENTON HARBOR  CLOUDY    22  14  71 S6        30.35R
BIG RAPIDS     CLOUDY    18  15  91 CALM      30.30R
COLDWATER      MOCLDY    21  17  83 CALM      30.32S
HOLLAND        CLOUDY    21  16  81 SE3       30.34R
GRAND RAPIDS   PTCLDY    19  13  77 S3        30.33F
KALAMAZOO      CLOUDY    21  16  81 S5        30.33S
MARSHALL       MOCLDY    15  13  90 CALM      30.31S
MUSKEGON       CLOUDY    20  15  81 SE5       30.34S
$$
MIZ016>042-281100-
NORTHERN LOWER MICHIGAN

CITY           SKY/WX    TMP DP  RH WIND       PRES   REMARKS
ALPENA         CLOUDY    17  11  77 W5        30.28S
BEAVER ISLAND  CLOUDY    20  13  73 CALM      30.27F
BELLAIRE       FLURRIES  20  14  78 CALM      30.29F
CADILLAC       CLOUDY    13  10  88 CALM      30.25S
CHARLEVOIX     LGT SNOW  20  13  75 W12       30.30S
FRANKFORT      CLOUDY    20  13  73 W5        30.31S
GAYLORD        CLOUDY    12   9  87 SW5       30.23S
GRAYLING       FLURRIES  16  12  86 SW3       30.26S
HARBOR SPRINGS FLURRIES  17  12  80 CALM      30.27S
HOUGHTON LAKE  CLOUDY    13   9  84 CALM      30.27S
MANISTEE       CLOUDY    19  12  73 CALM      30.32S
OSCODA         CLOUDY    13  10  87 SW7       30.29F
PELLSTON       CLOUDY    17  11  77 SW3       30.28S
TRAVERSE CITY  FLURRIES  18  13  80 SW3       30.30S
$$
MIZ007>008-015-281100-
EASTERN UPPER MICHIGAN

CITY           SKY/WX    TMP DP  RH WIND       PRES   REMARKS
KINROSS        MOCLDY    -2  -6  84 S3        30.26F
MACKINAC ISLAN CLOUDY    16  12  84 N5        30.26S
NEWBERRY       MOCLDY    10   8  90 SW8       30.22F
S. S. MARIE    PTCLDY     1  -3  83 E3        30.28R
$$
MIZ004>006-011>014-085-281100-
CENTRAL UPPER MICHIGAN

CITY           SKY/WX    TMP DP  RH WIND       PRES   REMARKS
MANISTIQUE     PTCLDY     7   2  82 W7        30.26F
ESCANABA       MOCLDY     5   0  78 W6        30.28F
MENOMINEE      CLOUDY     5   1  85 CALM      30.29F
SAWYER-GWINN   MOCLDY     1  -3  83 W3        30.19F
$$
MIZ001>003-009>011-084-281100-
WESTERN UPPER MICHIGAN

CITY           SKY/WX    TMP DP  RH WIND       PRES   REMARKS
IRON MOUNTAIN  MOCLDY    -1  -5  82 CALM      30.21F
HOUGHTON       CLOUDY     6   0  76 SW5       30.18F
COPPER HARBOR    N/A     12   5  73 SW9       30.20F
IRONWOOD       CLOUDY     7   0  72 S7        30.14F
$$

ABBREVIATIONS USED IN REMARKS
   TC - TEMPERATURE IN CELSIUS
  WCI - WIND CHILL INDEX
   HX - HEAT INDEX
  VSB - VISIBILITY



USA.gov is the U.S. government's official web portal to all federal, state and local government web resources and services.